Weather History for KALI - October, 2012

Change the Weather History Date:

Tuesday, October 16, 2012

  Actual Average Record
Temperature  
Mean Temperature 80 °F -  
Max Temperature 90 °F 82 °F 93 °F (1996)
Min Temperature 71 °F 62 °F 50 °F (2001)
Cooling Degree Days 15    
Growing Degree Days 30 (Base 50)    
Moisture  
Dew Point 65 °F    
Average Humidity 64    
Maximum Humidity 74    
Minimum Humidity 42    
Precipitation  
Precipitation 0.00 in - - ()
Sea Level Pressure  
Sea Level Pressure 29.85 in    
Wind  
Wind Speed 5 mph (East)    
Max Wind Speed 10 mph    
Max Gust Speed -    
Visibility 10 miles    
Events      
Averages and records for this station are not official NWS values.
T = Trace of Precipitation, MM = Missing Value Source: NWS Daily Summary

Daily Weather History Graph

Daily Weather History Graph

Search for Another Location

Airport or City:

Trip Planner

Search our weather history database for the weather conditions in past years. The results will help you decide how hot, cold, wet, or windy it might be!

Date:

Astronomy

Oct. 16, 2012 Rise Set
Actual Time 7:33 AM CDT 7:01 PM CDT
Civil Twilight 7:09 AM CDT 7:25 PM CDT
Nautical Twilight 6:42 AM CDT 7:52 PM CDT
Astronomical Twilight 6:15 AM CDT 8:19 PM CDT
Moon 8:46 AM CDT (10/16) 7:59 PM CDT (10/16)
Length of Visible Light 12h 15m
Length of Day
11h 28m
New Moon, 2% of the Moon is Illuminated
Oct 16
New Moon
Oct 21
First Quarter
Oct 29
Full
Nov 6
Last Quarter
Nov 13
New

Hourly Weather History & Observations

Time (CDT) Temp. Heat Index Dew Point Humidity Pressure Visibility Wind Dir Wind Speed Gust Speed Precip Events Conditions
12:53 AM 75.0 °F - 63.0 °F 66% 29.95 in 10.0 mi NE 5.8 mph - N/A   Clear
1:53 AM 75.0 °F - 61.0 °F 62% 29.94 in 10.0 mi NE 4.6 mph - N/A   Overcast
2:53 AM 73.9 °F - 61.0 °F 64% 29.94 in 10.0 mi NNE 3.5 mph - N/A   Scattered Clouds
3:53 AM 73.0 °F - 62.1 °F 68% 29.92 in 10.0 mi NE 3.5 mph - N/A   Mostly Cloudy
4:53 AM 73.0 °F - 62.1 °F 68% 29.91 in 10.0 mi North 3.5 mph - N/A   Overcast
5:09 AM 73.4 °F - 62.6 °F 69% 29.91 in 10.0 mi Calm Calm - N/A   Overcast
5:53 AM 72.0 °F - 62.1 °F 71% 29.89 in 10.0 mi Calm Calm - N/A   Overcast
6:01 AM 71.6 °F - 62.6 °F 73% 29.90 in 10.0 mi NE 3.5 mph - N/A   Overcast
6:53 AM 71.6 °F - 62.6 °F 73% 29.89 in 10.0 mi NE 3.5 mph - N/A   Scattered Clouds
7:13 AM 71.6 °F - 62.6 °F 73% 29.90 in 10.0 mi North 3.5 mph - N/A   Mostly Cloudy
7:45 AM 71.6 °F - 62.6 °F 73% 29.90 in 10.0 mi NE 4.6 mph - N/A   Mostly Cloudy
7:53 AM 72.0 °F - 62.1 °F 71% 29.89 in 10.0 mi ENE 4.6 mph - N/A   Scattered Clouds
8:53 AM 73.9 °F - 64.0 °F 71% 29.90 in 10.0 mi ENE 3.5 mph - N/A   Scattered Clouds
9:53 AM 79.0 °F - 68.0 °F 69% 29.91 in 10.0 mi Calm Calm - N/A   Clear
10:53 AM 82.0 °F 85.9 °F 70.0 °F 67% 29.91 in 10.0 mi SW 5.8 mph - N/A   Partly Cloudy
11:53 AM 82.9 °F 85.8 °F 68.0 °F 60% 29.89 in 10.0 mi South 9.2 mph - N/A   Clear
12:53 PM 86.0 °F 87.6 °F 64.9 °F 49% 29.86 in 10.0 mi Variable 3.5 mph - N/A   Clear
1:53 PM 87.1 °F 88.3 °F 64.0 °F 46% 29.82 in 10.0 mi Calm Calm - N/A   Clear
2:53 PM 89.1 °F 90.0 °F 63.0 °F 42% 29.78 in 10.0 mi SSE 6.9 mph - N/A   Clear
3:53 PM 89.1 °F 91.0 °F 64.9 °F 45% 29.76 in 10.0 mi South 8.1 mph - N/A   Partly Cloudy
4:53 PM 89.1 °F 91.0 °F 64.9 °F 45% 29.73 in 10.0 mi Variable 5.8 mph - N/A   Partly Cloudy
5:53 PM 89.1 °F 91.0 °F 64.9 °F 45% 29.73 in 10.0 mi SSE 3.5 mph - N/A   Scattered Clouds
6:53 PM 86.0 °F 90.1 °F 69.1 °F 57% 29.74 in 10.0 mi SSE 9.2 mph - N/A   Partly Cloudy
7:53 PM 82.0 °F 85.9 °F 70.0 °F 67% 29.75 in 10.0 mi SE 10.4 mph - N/A   Clear
8:53 PM 81.0 °F 84.9 °F 71.1 °F 72% 29.77 in 10.0 mi ESE 5.8 mph - N/A   Partly Cloudy
9:53 PM 80.1 °F 82.9 °F 69.1 °F 69% 29.79 in 10.0 mi East 8.1 mph - N/A   Clear
10:53 PM 79.0 °F - 70.0 °F 74% 29.78 in 10.0 mi ESE 6.9 mph - N/A   Clear
11:53 PM 78.1 °F - 69.1 °F 74% 29.77 in 10.0 mi SE 5.8 mph - N/A   Clear